Lid_Strength_Index
9 10 10 13 13 10 14 15 16 15 12 9 8 8 7 7 6 6 5 6 5 4 4 3 3 3 2 2 2 3 2 2
11 10 11 11 10 13 14 18 19 15 14 13 9 9 8 8 8 7 6 5 5 4 4 3 3 2 2 2 2 2 2 2
13 13 13 13 13 13 13 14 16 17 15 9 9 8 8 8 7 6 6 5 4 4 4 3 3 2 2 2 2 2 2 3
14 12 11 12 12 12 14 15 15 15 14 8 8 8 7 7 7 6 5 5 4 4 4 3 3 3 3 2 2 2 2 3
15 14 11 12 11 12 13 13 15 15 14 8 9 8 7 7 7 6 6 5 4 4 4 4 3 3 3 2 2 2 2 2
15 15 12 12 10 11 13 15 14 13 12 11 9 9 8 8 7 6 6 5 5 5 4 4 3 3 3 2 2 2 3 3
14 13 10 10 10 10 12 12 13 12 12 10 9 9 8 7 7 6 6 6 5 5 4 4 4 3 3 2 2 3 3 5
14 10 10 11 10 10 10 10 11 12 11 9 8 8 8 7 7 7 6 6 5 5 4 4 4 3 3 3 3 3 4 2
15 12 12 15 12 11 10 10 10 12 9 8 9 8 7 7 7 6 6 5 5 5 4 4 3 3 3 3 2 2 2 2
14 14 17 11 10 8 9 8 9 9 8 7 7 7 6 5 6 6 5 5 5 5 4 4 3 3 2 2 2 2 2 2
14 16 12 10 9 9 10 10 9 9 8 7 7 7 8 6 5 5 4 6 4 4 3 3 3 3 3 2 2 2 3 2
15 16 16 11 9 7 8 12 8 8 8 8 7 11 9 6 5 5 4 4 4 3 3 3 3 2 3 3 3 3 2 3
14 14 13 10 8 7 13 12 8 8 8 8 9 8 7 5 5 4 4 4 3 3 4 4 4 2 3 3 4 4 3 3
15 15 15 7 8 11 9 8 7 7 7 7 7 6 6 5 5 5 4 5 5 5 5 5 4 4 4 5 4 3 4 5
13 13 9 8 8 7 7 8 7 7 6 6 6 6 6 6 5 5 5 5 5 5 5 6 5 5 5 4 5 5 6 6
12 9 8 7 6 7 6 6 6 5 5 4 5 5 6 5 5 5 5 5 5 5 6 6 5 5 5 6 5 6 6 5
11 9 8 7 6 7 5 5 5 4 5 4 5 5 5 5 6 6 6 6 6 6 6 6 6 6 6 6 6 6 5 5
12 8 8 7 6 5 5 5 5 5 5 4 5 5 5 5 5 6 6 6 7 7 6 7 7 7 6 6 5 6 6 6
8 6 6 5 5 4 6 5 4 4 4 5 5 4 4 5 5 6 6 6 6 7 7 7 7 7 7 6 6 7 8 8